When you browse on this site, cookies collect data to enhance your experience and personalize the content and advertising you see.
Visit our Privacy Policy to learn more. By continuing to use the site, you agree to this use of cookies and data.
  • In Portugal
  • List of Countries
  • For 7 days
  • Water Temperature
  • Satellite Maps
  • Weather Map
  • Weather Widgets
  • user-avatar
    Login

    Hourly Weather Pleven

    Today, 18 April, Thursday

    Time Temperature Precipitation Wind Pressure Humidity
    00:00 +8°C° 0 mm 1 mps 749 mmHg 82%
    01:00 +6°C° 0 mm 2 mps 749 mmHg 85%
    02:00 +6°C° 0 mm 2 mps 749 mmHg 88%
    03:00 +5°C° 0 mm 2 mps 750 mmHg 89%
    04:00 +6°C° 0 mm 1 mps 750 mmHg 91%
    05:00 +5°C° 0 mm 1 mps 750 mmHg 92%
    06:00 +7°C° 0 mm 1 mps 750 mmHg 88%
    07:00 +8°C° 0 mm 1 mps 751 mmHg 83%
    08:00 +10°C° 0 mm 1 mps 751 mmHg 76%
    09:00 +11°C° 0 mm 1 mps 751 mmHg 72%
    10:00 +12°C° 0 mm 2 mps 751 mmHg 68%
    11:00 +13°C° 0 mm 2 mps 751 mmHg 64%
    12:00 +13°C° 0.1 mm 2 mps 751 mmHg 64%
    13:00 +12°C° 0.1 mm 3 mps 751 mmHg 63%
    14:00 +13°C° 0.1 mm 3 mps 751 mmHg 63%
    15:00 +12°C° 0.4 mm 3 mps 751 mmHg 71%
    16:00 +11°C° 0.4 mm 3 mps 751 mmHg 79%
    17:00 +10°C° 0.4 mm 4 mps 751 mmHg 87%
    18:00 +9°C° 0 mm 3 mps 751 mmHg 89%
    19:00 +8°C° 0 mm 2 mps 752 mmHg 92%
    20:00 +8°C° 0 mm 1 mps 752 mmHg 94%
    21:00 +8°C° 0 mm 1 mps 752 mmHg 93%
    22:00 +7°C° 0 mm 1 mps 753 mmHg 92%
    23:00 +7°C° 0 mm 1 mps 753 mmHg 90%

    Tomorrow, 19 April, Friday

    Time Temperature Precipitation Wind Pressure Humidity
    00:00 +7°C° 0 mm 1 mps 753 mmHg 89%
    01:00 +7°C° 0 mm 1 mps 753 mmHg 88%
    02:00 +7°C° 0 mm 1 mps 753 mmHg 87%
    03:00 +7°C° 0 mm 1 mps 753 mmHg 86%
    04:00 +7°C° 0 mm 1 mps 753 mmHg 85%
    05:00 +7°C° 0 mm 1 mps 753 mmHg 83%
    06:00 +7°C° 0 mm 2 mps 752 mmHg 79%
    07:00 +8°C° 0 mm 2 mps 752 mmHg 75%
    08:00 +10°C° 0 mm 2 mps 752 mmHg 71%
    09:00 +12°C° 0 mm 2 mps 752 mmHg 65%
    10:00 +13°C° 0 mm 3 mps 751 mmHg 60%
    11:00 +14°C° 0 mm 3 mps 751 mmHg 55%
    12:00 +15°C° 0.2 mm 4 mps 751 mmHg 54%
    13:00 +17°C° 0.2 mm 4 mps 750 mmHg 53%
    14:00 +17°C° 0.2 mm 4 mps 750 mmHg 51%
    15:00 +17°C° 0.3 mm 4 mps 749 mmHg 52%
    16:00 +17°C° 0.3 mm 4 mps 749 mmHg 52%
    17:00 +17°C° 0.3 mm 4 mps 749 mmHg 53%
    18:00 +14°C° 0.9 mm 3 mps 749 mmHg 65%
    19:00 +11°C° 0.9 mm 3 mps 750 mmHg 77%
    20:00 +9°C° 0.9 mm 2 mps 750 mmHg 90%
    21:00 +9°C° 0.1 mm 2 mps 751 mmHg 87%
    22:00 +10°C° 0.1 mm 1 mps 751 mmHg 85%
    23:00 +10°C° 0.1 mm 1 mps 752 mmHg 82%

    Day after tomorrow, 20 April, Saturday

    Time Temperature Precipitation Wind Pressure Humidity
    00:00 +9°C° 0 mm 1 mps 752 mmHg 86%
    01:00 +8°C° 0 mm 1 mps 753 mmHg 90%
    02:00 +7°C° 0 mm 1 mps 753 mmHg 94%
    03:00 +6°C° 0 mm 1 mps 753 mmHg 94%
    04:00 +6°C° 0 mm 1 mps 753 mmHg 95%
    05:00 +4°C° 0 mm 0 mps 753 mmHg 95%
    06:00 +6°C° 0 mm 1 mps 754 mmHg 86%
    07:00 +8°C° 0 mm 1 mps 754 mmHg 77%
    08:00 +9°C° 0 mm 1 mps 754 mmHg 69%
    09:00 +10°C° 0 mm 1 mps 754 mmHg 63%
    10:00 +11°C° 0 mm 1 mps 754 mmHg 57%
    11:00 +13°C° 0 mm 1 mps 754 mmHg 51%
    12:00 +13°C° 0.1 mm 2 mps 754 mmHg 51%
    13:00 +13°C° 0.1 mm 2 mps 754 mmHg 50%
    14:00 +14°C° 0.1 mm 2 mps 753 mmHg 50%
    15:00 +14°C° 0.1 mm 2 mps 753 mmHg 50%
    16:00 +14°C° 0.1 mm 2 mps 753 mmHg 51%
    17:00 +13°C° 0.1 mm 1 mps 753 mmHg 52%
    18:00 +12°C° 0 mm 2 mps 753 mmHg 57%
    19:00 +9°C° 0 mm 2 mps 753 mmHg 62%
    20:00 +8°C° 0 mm 2 mps 754 mmHg 68%
    21:00 +7°C° 0 mm 2 mps 754 mmHg 66%
    22:00 +7°C° 0 mm 2 mps 754 mmHg 65%
    23:00 +6°C° 0 mm 2 mps 754 mmHg 64%

    21 April, Sunday

    Time Temperature Precipitation Wind Pressure Humidity
    00:00 +6°C° 0 mm 2 mps 754 mmHg 62%
    01:00 +6°C° 0 mm 2 mps 753 mmHg 61%
    02:00 +6°C° 0 mm 2 mps 753 mmHg 60%
    03:00 +6°C° 0 mm 2 mps 753 mmHg 60%
    04:00 +6°C° 0 mm 2 mps 753 mmHg 61%
    05:00 +5°C° 0 mm 2 mps 753 mmHg 62%
    06:00 +7°C° 0 mm 2 mps 752 mmHg 60%
    07:00 +9°C° 0 mm 2 mps 752 mmHg 58%
    08:00 +11°C° 0 mm 1 mps 752 mmHg 56%
    09:00 +13°C° 0 mm 1 mps 752 mmHg 51%
    10:00 +15°C° 0 mm 1 mps 752 mmHg 46%
    11:00 +18°C° 0 mm 1 mps 751 mmHg 41%
    12:00 +18°C° 0 mm 1 mps 751 mmHg 40%
    13:00 +19°C° 0 mm 1 mps 750 mmHg 40%
    14:00 +19°C° 0 mm 1 mps 750 mmHg 39%
    15:00 +19°C° 0 mm 1 mps 749 mmHg 40%
    16:00 +19°C° 0 mm 1 mps 749 mmHg 40%
    17:00 +19°C° 0 mm 1 mps 749 mmHg 41%
    18:00 +16°C° 0 mm 1 mps 749 mmHg 47%
    19:00 +14°C° 0 mm 1 mps 749 mmHg 52%
    20:00 +12°C° 0 mm 2 mps 749 mmHg 58%
    21:00 +10°C° 0 mm 2 mps 749 mmHg 59%
    22:00 +10°C° 0 mm 2 mps 750 mmHg 61%
    23:00 +9°C° 0 mm 2 mps 750 mmHg 63%

    22 April, Monday

    Time Temperature Precipitation Wind Pressure Humidity
    00:00 +9°C° 0 mm 2 mps 750 mmHg 63%
    01:00 +8°C° 0 mm 2 mps 750 mmHg 64%
    02:00 +8°C° 0 mm 2 mps 750 mmHg 64%
    03:00 +8°C° 0 mm 2 mps 750 mmHg 65%
    04:00 +8°C° 0 mm 2 mps 750 mmHg 65%
    05:00 +7°C° 0 mm 2 mps 750 mmHg 65%
    06:00 +10°C° 0 mm 1 mps 750 mmHg 62%
    07:00 +12°C° 0 mm 1 mps 750 mmHg 59%
    08:00 +13°C° 0 mm 1 mps 750 mmHg 56%
    09:00 +15°C° 0 mm 2 mps 750 mmHg 52%
    10:00 +17°C° 0 mm 2 mps 750 mmHg 47%
    11:00 +18°C° 0 mm 3 mps 750 mmHg 42%
    12:00 +19°C° 0 mm 3 mps 750 mmHg 41%
    13:00 +20°C° 0 mm 3 mps 749 mmHg 40%
    14:00 +20°C° 0 mm 3 mps 749 mmHg 39%
    15:00 +20°C° 0 mm 4 mps 749 mmHg 43%
    16:00 +20°C° 0 mm 4 mps 748 mmHg 46%
    17:00 +19°C° 0 mm 4 mps 748 mmHg 49%
    18:00 +17°C° 0 mm 4 mps 748 mmHg 56%
    19:00 +14°C° 0 mm 4 mps 749 mmHg 63%
    20:00 +12°C° 0 mm 3 mps 749 mmHg 70%
    21:00 +12°C° 0 mm 3 mps 750 mmHg 72%
    22:00 +11°C° 0 mm 3 mps 750 mmHg 74%
    23:00 +10°C° 0 mm 3 mps 750 mmHg 76%

    23 April, Tuesday

    Time Temperature Precipitation Wind Pressure Humidity
    00:00 +10°C° 0 mm 2 mps 750 mmHg 77%
    01:00 +9°C° 0 mm 2 mps 750 mmHg 78%
    02:00 +9°C° 0 mm 2 mps 751 mmHg 79%
    03:00 +9°C° 0 mm 2 mps 751 mmHg 78%
    04:00 +9°C° 0 mm 2 mps 751 mmHg 77%
    05:00 +8°C° 0 mm 2 mps 751 mmHg 77%
    06:00 +9°C° 0 mm 2 mps 751 mmHg 74%
    07:00 +9°C° 0 mm 2 mps 751 mmHg 72%
    08:00 +10°C° 0 mm 2 mps 751 mmHg 70%
    09:00 +11°C° 0 mm 3 mps 751 mmHg 66%
    10:00 +13°C° 0 mm 3 mps 751 mmHg 62%
    11:00 +14°C° 0 mm 4 mps 751 mmHg 59%
    12:00 +15°C° 0 mm 4 mps 750 mmHg 54%
    13:00 +18°C° 0 mm 4 mps 750 mmHg 49%
    14:00 +19°C° 0 mm 4 mps 749 mmHg 44%
    15:00 +19°C° 0 mm 3 mps 749 mmHg 46%
    16:00 +19°C° 0 mm 3 mps 749 mmHg 48%
    17:00 +19°C° 0 mm 3 mps 748 mmHg 50%
    18:00 +17°C° 0 mm 3 mps 748 mmHg 56%
    19:00 +14°C° 0 mm 3 mps 748 mmHg 62%
    20:00 +12°C° 0 mm 3 mps 748 mmHg 68%
    21:00 +12°C° 0 mm 2 mps 749 mmHg 71%
    22:00 +10°C° 0 mm 2 mps 749 mmHg 73%
    23:00 +10°C° 0 mm 1 mps 749 mmHg 75%
    Show more